Regional Weather Roundup
Issued by NWS

Home | Current Version | Previous Version | Graphics & Text | Print | Product List | Glossary Off
Versions: 1 2 3 4 5 6 7 8 9 10 11 12 13 14 15 16 17 18 19 20 21 22 23 24 25 26 27 28 29 30 31 32 33 34 35 36 37 38 39 40 41 42 43 44 45 46 47 48 49 50

941
ASUS43 KMKX 270611
RWRWI

WISCONSIN REGIONAL WEATHER ROUNDUP
NATIONAL WEATHER SERVICE MILWAUKEE/SULLIVAN WI
100 AM CDT MON MAR 27 2017

NOTE: "FAIR" INDICATES FEW OR NO CLOUDS BELOW 12,000 FEET WITH NO
SIGNIFICANT WEATHER AND/OR OBSTRUCTIONS TO VISIBILITY.

WIZ001-002-006>008-014>016-023>028-270700-
NORTHWEST WISCONSIN

CITY           SKY/WX    TMP DP  RH WIND       PRES   REMARKS
SUPERIOR ARPT  CLOUDY    33  32  99 CALM      29.96S
6HR MIN TEMP:  32; 6HR MAX TEMP:  34;

ASHLAND        CLOUDY    32  32 100 NW3       29.95S
6HR MIN TEMP:  32; 6HR MAX TEMP:  34;

HAYWARD        CLOUDY    36  32  85 CALM      29.92S
6HR MIN TEMP:  35; 6HR MAX TEMP:  38;

SIREN          DRIZZLE   35  34  96 CALM      29.94F
6HR MIN TEMP:  35; 6HR MAX TEMP:  37; 6HR PCP:  0.01;

CUMBERLAND     DRZL/FOG  34  32  93 N3        29.92F VSB 3/4
RICE LAKE      CLOUDY    36  35  96 CALM      29.93F
6HR MIN TEMP:  36; 6HR MAX TEMP:  41;

CHETEK         CLOUDY    35  35  99 CALM      29.92F
6HR MIN TEMP:  35; 6HR MAX TEMP:  40;

LADYSMITH      CLOUDY    35  33  92 CALM      29.92F
6HR MIN TEMP:  35; 6HR MAX TEMP:  41;

EAU CLAIRE     CLOUDY    39  38  96 N5        29.90F
6HR MIN TEMP:  39; 6HR MAX TEMP:  43;

MENOMONIE      CLOUDY    39  38  97 NW6       29.92S WCI  35
6HR MIN TEMP:  39; 6HR MAX TEMP:  43;

NEW RICHMOND   CLOUDY    36  36 100 N3        29.93S
6HR MIN TEMP:  36; 6HR MAX TEMP:  39;

OSCEOLA        CLOUDY    37  37 100 NW5       29.96F WCI  33
6HR MIN TEMP:  37; 6HR MAX TEMP:  41;

$$

WIZ003>005-009-010-017-018-270700-
NORTH CENTRAL WISCONSIN

CITY           SKY/WX    TMP DP  RH WIND       PRES   REMARKS
MANITOWISH WTR CLOUDY    32  32 100 NW3       29.89S
6HR MIN TEMP:  32; 6HR MAX TEMP:  35;

ARBOR VITAE    CLOUDY    34  33  96 NW5       29.87F WCI  30
6HR MIN TEMP:  34; 6HR MAX TEMP:  39;

WOODRUFF       CLOUDY    34  33  96 NW5       29.87F WCI  30
6HR MIN TEMP:  34; 6HR MAX TEMP:  39;

RHINELANDER    CLOUDY    36  35  96 CALM      29.87S
6HR MIN TEMP:  36; 6HR MAX TEMP:  39; 6HR PCP:  0.10;

EAGLE RIVER    CLOUDY    33  33 100 N5        29.86F WCI  28
6HR MIN TEMP:  33; 6HR MAX TEMP:  37;

LAND O LAKES   CLOUDY    33  33 100 N7        29.89R WCI  26
6HR MIN TEMP:  32; 6HR MAX TEMP:  37;

PHILLIPS       CLOUDY    32  32 100 CALM      29.89S
6HR MIN TEMP:  32; 6HR MAX TEMP:  38;

TOMAHAWK       CLOUDY    34  33  96 NW3       29.89S
6HR MIN TEMP:  34; 6HR MAX TEMP:  38;

MEDFORD        CLOUDY    36  35  97 NW3       29.88S
6HR MIN TEMP:  36; 6HR MAX TEMP:  39;

MERRILL        CLOUDY    37  37 100 CALM      29.88F
6HR MIN TEMP:  37; 6HR MAX TEMP:  39; 6HR PCP:  0.08;

$$

WIZ029-030-035-036-043>047-270700-
CENTRAL WISCONSIN

CITY           SKY/WX    TMP DP  RH WIND       PRES   REMARKS
WAUSAU         CLOUDY    38  38 100 N3        29.86F
6HR MIN TEMP:  38; 6HR MAX TEMP:  39; 6HR PCP:  0.15;

MOSINEE        CLOUDY    36  36 100 CALM      29.88F
MARSHFIELD     CLOUDY    38  37  97 NW5       29.87F FOG     WCI  34
6HR MIN TEMP:  38; 6HR MAX TEMP:  39; 6HR PCP: TRACE;

STEVENS POINT  CLOUDY    37  37 100 CALM      29.88F FOG
6HR MIN TEMP:  36; 6HR MAX TEMP:  37; 6HR PCP:  0.19;

WAUPACA        CLOUDY    40  38  96 CALM      29.89S
6HR MIN TEMP:  40; 6HR MAX TEMP:  40; 6HR PCP:  0.09;

WAUTOMA        CLOUDY    39  38  96 CALM      29.89F
6HR MIN TEMP:  39; 6HR MAX TEMP:  39; 6HR PCP:  0.05;

WISC RAPIDS    CLOUDY    39  39 100 W3        29.90F
6HR MIN TEMP:  39; 6HR MAX TEMP:  39; 6HR PCP:  0.08;

CAMP DOUGLAS   CLOUDY    39  39 100 W5        29.89S
6HR MIN TEMP:  39; 6HR MAX TEMP:  40;

$$

WIZ011>013-019>022-031-037>040-048>050-270700-
NORTHEAST WISCONSIN

CITY           SKY/WX    TMP DP  RH WIND       PRES   REMARKS
ANTIGO         CLOUDY    35  35 100 CALM      29.87S
6HR MIN TEMP:  35; 6HR MAX TEMP:  36; 6HR PCP:  0.14;

SHAWANO        DRIZZLE   38  37  94 CALM      29.89F
6HR MIN TEMP:  38; 6HR MAX TEMP:  39; 6HR PCP:  0.07;

OCONTO         CLOUDY    36  35  99 W3        29.88S
6HR MIN TEMP:  35; 6HR MAX TEMP:  37;

STURGEON BAY   FOG       34  34 100 NW6       29.88R VSB 1/2 WCI  29
6HR MIN TEMP:  33; 6HR MAX TEMP:  35; 6HR PCP:  0.01;

GREEN BAY      CLOUDY    37  37 100 NW3       29.88F
6HR MIN TEMP:  37; 6HR MAX TEMP:  38; 6HR PCP:  0.02;

MANITOWOC      CLOUDY    37  36  96 NW6       29.88S WCI  32
6HR MIN TEMP:  37; 6HR MAX TEMP:  40;

APPLETON       CLOUDY    36  36 100 NW3       29.86F
CLINTONVILLE   CLOUDY    36  36 100 W3        29.89S
OSHKOSH        CLOUDY    38  37  97 NW6       29.87F WCI  33
6HR MIN TEMP:  38; 6HR MAX TEMP:  40; 6HR PCP:  0.05;

$$

WIZ032>034-041-042-053>061-270700-
SOUTHWEST WISCONSIN

CITY           SKY/WX    TMP DP  RH WIND       PRES   REMARKS
LA CROSSE      CLOUDY    42  40  92 CALM      29.91F
6HR MIN TEMP:  42; 6HR MAX TEMP:  43; 6HR PCP: TRACE;

SPARTA         CLOUDY    39  39 100 CALM      29.91F FOG
6HR MIN TEMP:  39; 6HR MAX TEMP:  40;

VIROQUA        CLOUDY    39  39 100 NW5       29.89S VSB 1/4
6HR MIN TEMP:  39; 6HR MAX TEMP:  41;

BOSCOBEL       CLOUDY    43  41  93 CALM      29.91F
6HR MIN TEMP:  43; 6HR MAX TEMP:  46;

PRAIRIE DU CHI CLOUDY    42  39  92 CALM      29.92S
6HR MIN TEMP:  42; 6HR MAX TEMP:  44;

PLATTEVILLE    CLOUDY    43  43 100 W5        29.90S VSB 1/4
6HR MIN TEMP:  43; 6HR MAX TEMP:  45;

$$

WIZ056-057-062-063-064-067-068-270700-
SOUTH CENTRAL WISCONSIN

CITY           SKY/WX    TMP DP  RH WIND       PRES   REMARKS
REEDSBURG      CLOUDY    39  39 100 CALM      29.89F FOG
6HR MIN TEMP:  38; 6HR MAX TEMP:  40;

BARABOO/DELLS  CLOUDY    39  38  97 CALM      29.88F FOG
6HR MIN TEMP:  38; 6HR MAX TEMP:  40; 6HR PCP:  0.01;

LONE ROCK      CLOUDY    43  40  89 CALM      29.89F FOG
6HR MIN TEMP:  42; 6HR MAX TEMP:  43;

MINERAL POINT  CLOUDY    43  43 100 CALM      29.89S FOG
MADISON        CLOUDY    41  39  93 NW6       29.88F
6HR MIN TEMP:  40; 6HR MAX TEMP:  42; 6HR PCP:  0.02;

MIDDLETON      CLOUDY    42  42 100 NW5       29.88F
6HR MIN TEMP:  42; 6HR MAX TEMP:  44;

WATERTOWN      CLOUDY    40  40 100 N5        29.87F
6HR MIN TEMP:  40; 6HR MAX TEMP:  44; 6HR PCP:  0.04;

MONROE         CLOUDY    41  41 100 NW3       29.89S
JANESVILLE     CLOUDY    43  43 100 N5        29.88S
$$

WIZ051-052-058>065-066-070>072-270700-
SOUTHEAST WISCONSIN

CITY           SKY/WX    TMP DP  RH WIND       PRES   REMARKS
MILWAUKEE      FOG       43  40  89 CALM      29.87F VSB 3/4
6HR MIN TEMP:  41; 6HR MAX TEMP:  43; 6HR PCP: TRACE;

WAUKESHA       CLOUDY    39  37  93 W8        29.89S WCI  34
MILWAUKEE/TIMM DRIZZLE   41  39  93 W6        29.88S
RACINE         FOG       42  40  92 N3        29.89S VSB 1/2
6HR MIN TEMP:  41; 6HR MAX TEMP:  43; 6HR PCP: TRACE;

KENOSHA        FOG       46  45  96 CALM      29.87F VSB<1/4
6HR MIN TEMP:  46; 6HR MAX TEMP:  48; 6HR PCP:  0.03;

FOND DU LAC    LGT RAIN  39  36  89 NW5       29.88F
6HR MIN TEMP:  39; 6HR MAX TEMP:  41; 6HR PCP:  0.04;

SHEBOYGAN      CLOUDY    38  36  92 NW3       29.87F
6HR MIN TEMP:  38; 6HR MAX TEMP:  41; 6HR PCP:  0.12;

WEST BEND      CLOUDY    37  37 100 W3        29.87F
JUNEAU         CLOUDY    38  38  98 CALM      29.90S
6HR MIN TEMP:  38; 6HR MAX TEMP:  42; 6HR PCP:  0.03;

$$

LSZ147-162-270700-
LAKE SUPERIOR

STATION/POSITION TIME  TEMP    WIND        PRES    WAVE
                       AIR SEA DIR/SP/G            HT/PER
                 (UTC) (F)     (DEG/KT/KT) (MB)    (FT/S)
DEVILS ISLAND    0600   34     310/  6/  7 1015.1R
PORT WING        0540   34     360/  3/  3 1014.6S
SAXON HARBOR     0440   33     300/  4/  5 1013.5S
$$

LMZ867-665-643>646-270700-
LAKE MICHIGAN

STATION/POSITION TIME  TEMP    WIND        PRES    WAVE
                       AIR SEA DIR/SP/G            HT/PER
                 (UTC) (F)     (DEG/KT/KT) (MB)    (FT/S)
CHAMBERS ISLAND  0540   35     280/  3/  6



USA.gov is the U.S. government's official web portal to all federal, state and local government web resources and services.